Regional Weather Roundup
Issued by NWS Little Rock, AR

Home | Current Version | Previous Version | Text Only | Print | Product List | Glossary Off
Versions: 1 2 3 4 5 6 7 8 9 10 11 12 13 14 15 16 17 18 19 20 21 22 23 24 25 26 27 28 29 30 31 32 33 34 35 36 37 38 39 40 41 42 43 44 45 46 47 48 49 50

000
ASUS44 KLZK 280505
RWRLZK

WEATHER ROUNDUP FOR ARKANSAS
NATIONAL WEATHER SERVICE LITTLE ROCK AR
1200 AM CDT TUE JUL 28 2015

NOTE: "FAIR" INDICATES FEW OR NO CLOUDS BELOW 12,000 FEET WITH NO
SIGNIFICANT WEATHER AND/OR OBSTRUCTIONS TO VISIBILITY.

ARZ001-003-010-029-280600-
NORTHWEST ARKANSAS

CITY           SKY/WX    TMP DP  RH WIND       PRES   REMARKS
FAYETTEVILLE   CLEAR     78  75  90 S3        29.97F
FORT SMITH     CLEAR     86  70  58 CALM      29.92F HX  90
HARRISON       CLEAR     79  75  87 SE6       29.99S
BENTONVILLE    CLEAR     81  72  74 S7        29.98S
ROGERS         CLEAR     81  74  79 SE8       29.98F HX  86
SILOAM SPGS    CLEAR     81  70  69 SE9       29.95S
HIGHFILL       CLEAR     81  75  82 S5        29.97S HX  87
$$

ARZ004-005-016-280600-
NORTH CENTRAL ARKANSAS

CITY           SKY/WX    TMP DP  RH WIND       PRES   REMARKS
BATESVILLE     CLEAR     82  73  74 CALM      29.95S HX  88
FLIPPIN        CLEAR     75  72  88 CALM      29.95F
MTN HOME       CLEAR     77  74  90 SE3       29.96F
$$

ARZ040-041-280600-
WEST CENTRAL ARKANSAS

CITY           SKY/WX    TMP DP  RH WIND       PRES   REMARKS
MENA           CLEAR     77  72  83 CALM      29.99S
MOUNT IDA      CLEAR     77  74  90 CALM      29.96R
$$

ARZ009-017-025-026-028-280600-
NORTHEAST ARKANSAS

CITY           SKY/WX    TMP DP  RH WIND       PRES   REMARKS
JONESBORO      CLEAR     79  77  94 CALM      29.94S
NEWPORT        PTCLDY    81  80  96 SE5       29.95S HX  91
WALNUT RIDGE   CLEAR     81  75  83 S5        29.94S HX  86
BLYTHEVILLE    CLEAR     83  79  88 CALM      29.95F HX  94
$$

ARZ022-023-033-042-044-280600-
CENTRAL ARKANSAS

CITY           SKY/WX    TMP DP  RH WIND       PRES   REMARKS
LITTLE ROCK    CLEAR     84  76  76 S5        29.95R HX  93
N LITTLE ROCK  CLEAR     84  77  79 S2        29.95R HX  94
JACKSONVILLE   CLEAR     82  76  82 CALM      29.95R HX  89
SEARCY         CLEAR     77  76  96 CALM      29.96S
HOT SPRINGS    CLEAR     83  73  72 CALM      29.96S HX  89
RUSSELLVILLE   CLEAR     78  75  90 CALM      29.95R
$$

ARZ036-280600-
EAST ARKANSAS

CITY           SKY/WX    TMP DP  RH WIND       PRES   REMARKS
WEST MEMPHIS   CLEAR     82  79  90 S3        29.95R HX  92
$$

ARZ050-053-066-070-073-280600-
SOUTHWEST ARKANSAS

CITY           SKY/WX    TMP DP  RH WIND       PRES   REMARKS
ARKADELPHIA    FAIR      80  80 100 CALM      29.95R HX  87
CAMDEN         CLEAR     81  75  83 CALM      29.95R HX  86
TEXARKANA      CLEAR     84  72  67 SE5       29.95R HX  89
EL DORADO      CLEAR     80  75  84 CALM      29.96R HX  85
DE QUEEN       CLEAR     77  75  93 CALM      29.92S FOG
$$

ARZ056-057-069-280600-
SOUTHEAST ARKANSAS

CITY           SKY/WX    TMP DP  RH WIND       PRES   REMARKS
PINE BLUFF     CLEAR     82  76  81 CALM      29.95S HX  89
STUTTGART      CLEAR     84  75  74 CALM      29.95S HX  92
MONTICELLO     CLEAR     83  75  77 S3        29.96R HX  90

$$





USA.gov is the U.S. government's official web portal to all federal, state and local government web resources and services.